Toledo, OH

5:03 PM EDT on March 26, 2017 (GMT -0400)
Toledo Express

Weather History for KTOL - May, 2014

Change the Weather History Date:

Thursday, May 8, 2014

  Actual Average Record
Temperature  
Mean Temperature 67 °F 57 °F  
Max Temperature 87 °F 69 °F 88 °F (1979)
Min Temperature 46 °F 46 °F 28 °F (1976)
Degree Days  
Heating Degree Days 0 9  
Month to date heating degree days 98 76  
Since 1 July heating degree days 7023 5978  
Cooling Degree Days 2 1  
Month to date cooling degree days 2 5  
Year to date cooling degree days 4 13  
Growing Degree Days 16 (Base 50)    
Moisture  
Dew Point 54 °F    
Average Humidity 66    
Maximum Humidity 93    
Minimum Humidity 39    
Precipitation  
Precipitation 0.00 in 0.11 in 1.00 in (1974)
Month to date precipitation 0.19 0.87  
Year to date precipitation 12.07 10.66  
Snow  
Snow 0.00 in 0.00 in - ()
Month to date snowfall 0.0 0.1  
Since 1 July snowfall 86.3 37.6  
Snow Depth 0.00 in    
Sea Level Pressure  
Sea Level Pressure 29.94 in    
Wind  
Wind Speed 9 mph (SSW)    
Max Wind Speed 21 mph    
Max Gust Speed 33 mph    
Visibility 10 miles    
Events      
T = Trace of Precipitation, MM = Missing Value Source: NWS Daily Summary

Daily Weather History Graph

Daily Weather History Graph

Search for Another Location

Airport or City:

Trip Planner

Search our weather history database for the weather conditions in past years. The results will help you decide how hot, cold, wet, or windy it might be!

Date:

Astronomy

May. 08, 2014 Rise Set
Actual Time 6:23 AM EDT 8:40 PM EDT
Civil Twilight 5:52 AM EDT 9:11 PM EDT
Nautical Twilight 5:14 AM EDT 9:50 PM EDT
Astronomical Twilight 4:32 AM EDT 10:32 PM EDT
Moon 2:35 PM EDT (5/8) 2:59 AM EDT (5/8)
Length of Visible Light 15h 19m
Length of Day
14h 17m
Waxing Gibbous, 64% of the Moon is Illuminated
May 8
Waxing Gibbous
May 14
Full
May 21
Last Quarter
May 28
New
Jun 5
First Quarter

Hourly Weather History & Observations

Time (EDT) Temp. Heat Index Dew Point Humidity Pressure Visibility Wind Dir Wind Speed Gust Speed Precip Events Conditions
12:52 AM 52.0 °F - 44.1 °F 74% 29.95 in 10.0 mi East 9.2 mph - N/A   Clear
1:52 AM 51.1 °F - 45.0 °F 80% 29.95 in 10.0 mi East 4.6 mph - N/A   Clear
2:52 AM 50.0 °F - 44.6 °F 82% 29.95 in 10.0 mi Calm Calm - N/A   Clear
3:52 AM 48.0 °F - 45.0 °F 89% 29.96 in 10.0 mi Calm Calm - N/A   Clear
4:52 AM 46.9 °F - 45.0 °F 93% 29.96 in 10.0 mi East 3.5 mph - N/A   Clear
5:52 AM 48.0 °F - 45.0 °F 89% 29.96 in 10.0 mi Calm Calm - N/A   Clear
6:52 AM 48.9 °F - 46.9 °F 93% 29.98 in 10.0 mi Calm Calm - N/A   Clear
7:52 AM 57.9 °F - 51.1 °F 78% 29.98 in 10.0 mi SSW 4.6 mph - N/A   Clear
8:52 AM 66.9 °F - 54.0 °F 63% 29.99 in 10.0 mi South 6.9 mph - N/A   Clear
9:52 AM 72.0 °F - 57.0 °F 59% 29.99 in 10.0 mi SW 12.7 mph - N/A   Clear
10:52 AM 75.2 °F - 57.2 °F 53% 29.99 in 10.0 mi SW 15.0 mph - N/A   Mostly Cloudy
11:52 AM 78.1 °F - 60.1 °F 54% 29.96 in 10.0 mi WSW 11.5 mph 17.3 mph N/A   Clear
12:52 PM 79.0 °F - 60.1 °F 52% 29.95 in 10.0 mi SW 12.7 mph 18.4 mph N/A   Scattered Clouds
1:52 PM 82.4 °F 82.9 °F 60.8 °F 48% 29.95 in 10.0 mi SSW 16.1 mph 33.4 mph N/A   Scattered Clouds
2:52 PM 84.0 °F 84.4 °F 61.0 °F 46% 29.92 in 10.0 mi SSW 15.0 mph 23.0 mph N/A   Scattered Clouds
3:52 PM 86.0 °F 86.1 °F 61.0 °F 43% 29.90 in 10.0 mi SSW 12.7 mph 19.6 mph N/A   Mostly Cloudy
4:52 PM 86.0 °F 86.1 °F 60.8 °F 43% 29.90 in 10.0 mi WSW 18.4 mph 25.3 mph N/A   Partly Cloudy
5:52 PM 87.1 °F 86.5 °F 59.0 °F 39% 29.88 in 10.0 mi SSW 10.4 mph 24.2 mph N/A   Clear
6:52 PM 86.0 °F 85.4 °F 59.0 °F 40% 29.87 in 10.0 mi SW 10.4 mph 18.4 mph N/A   Clear
7:52 PM 84.2 °F 83.5 °F 57.2 °F 40% 29.91 in 10.0 mi SSW 13.8 mph 20.7 mph N/A   Clear
8:52 PM 81.0 °F 81.0 °F 57.0 °F 44% 29.91 in 10.0 mi SSW 9.2 mph - N/A   Clear
9:52 PM 79.0 °F - 57.0 °F 47% 29.92 in 10.0 mi South 8.1 mph - N/A   Clear
10:52 PM 75.9 °F - 57.0 °F 52% 29.93 in 10.0 mi South 9.2 mph - N/A   Clear
11:52 PM 73.0 °F - 57.0 °F 57% 29.92 in 10.0 mi South 6.9 mph - N/A   Clear